Atlanta Fulton, GA

9:36 AM EST on November 20, 2017 (GMT -0500)
Fulton County-Brown

Weather History for KFTY - May, 2013

Change the Weather History Date:

Wednesday, May 15, 2013

  Actual Average Record
Temperature  
Mean Temperature 72 °F 69 °F  
Max Temperature 86 °F 80 °F 89 °F (1998)
Min Temperature 58 °F 58 °F 44 °F (2002)
Cooling Degree Days 7 5  
Month to date cooling degree days 17 51  
Year to date cooling degree days 52 90  
Growing Degree Days 22 (Base 50)    
Moisture  
Dew Point 55 °F    
Average Humidity 58    
Maximum Humidity 86    
Minimum Humidity 30    
Precipitation  
Precipitation 0.00 in 0.13 in 2.05 in (1968)
Month to date precipitation 3.99 1.90  
Year to date precipitation 9.13 19.62  
Sea Level Pressure  
Sea Level Pressure 30.10 in    
Wind  
Wind Speed 4 mph (WSW)    
Max Wind Speed 15 mph    
Max Gust Speed 20 mph    
Visibility 10 miles    
Events      
T = Trace of Precipitation, MM = Missing Value Source: NWS Daily Summary

Daily Weather History Graph

Daily Weather History Graph

Search for Another Location

Airport or City:

Trip Planner

Search our weather history database for the weather conditions in past years. The results will help you decide how hot, cold, wet, or windy it might be!

Date:

Astronomy

May. 15, 2013 Rise Set
Actual Time 6:36 AM EDT 8:32 PM EDT
Civil Twilight 6:09 AM EDT 8:59 PM EDT
Nautical Twilight 5:35 AM EDT 9:33 PM EDT
Astronomical Twilight 5:00 AM EDT 10:09 PM EDT
Moon 11:09 AM EDT (5/15) 12:20 AM EDT (5/15)
Length of Visible Light 14h 50m
Length of Day
13h 55m
Waxing Crescent, 26% of the Moon is Illuminated
May 15
Waxing Crescent
May 18
First Quarter
May 25
Full
May 31
Last Quarter
Jun 8
New

Hourly Weather History & Observations

Time (EDT) Temp. Heat Index Dew Point Humidity Pressure Visibility Wind Dir Wind Speed Gust Speed Precip Events Conditions
12:53 AM 64.0 °F - 55.0 °F 73% 30.14 in 10.0 mi SSW 3.5 mph - N/A   Clear
1:53 AM 62.1 °F - 55.0 °F 78% 30.14 in 10.0 mi Calm Calm - N/A   Clear
2:53 AM 60.1 °F - 55.0 °F 83% 30.13 in 10.0 mi Calm Calm - N/A   Clear
3:53 AM 60.1 °F - 55.0 °F 83% 30.12 in 10.0 mi SW 3.5 mph - N/A   Clear
4:53 AM 60.1 °F - 54.0 °F 80% 30.13 in 10.0 mi SSW 4.6 mph - N/A   Clear
5:53 AM 59.0 °F - 54.0 °F 83% 30.14 in 10.0 mi SW 3.5 mph - N/A   Clear
6:53 AM 57.9 °F - 54.0 °F 87% 30.15 in 10.0 mi SW 3.5 mph - N/A   Clear
7:53 AM 61.0 °F - 55.0 °F 81% 30.16 in 10.0 mi WSW 3.5 mph - N/A   Clear
8:53 AM 66.0 °F - 55.9 °F 70% 30.17 in 10.0 mi SW 3.5 mph - N/A   Clear
9:53 AM 73.0 °F - 57.0 °F 57% 30.17 in 10.0 mi Variable 3.5 mph - N/A   Clear
10:53 AM 75.9 °F - 55.9 °F 50% 30.17 in 10.0 mi NW 8.1 mph - N/A   Clear
11:53 AM 79.0 °F - 54.0 °F 42% 30.16 in 10.0 mi NW 9.2 mph - N/A   Clear
12:53 PM 82.0 °F 81.6 °F 55.9 °F 41% 30.14 in 10.0 mi West 10.4 mph 18.4 mph N/A   Clear
1:53 PM 84.0 °F 82.6 °F 54.0 °F 35% 30.12 in 10.0 mi West 6.9 mph - N/A   Clear
2:53 PM 84.0 °F 82.5 °F 53.1 °F 34% 30.09 in 10.0 mi Variable 5.8 mph 16.1 mph N/A   Clear
3:53 PM 84.9 °F - 52.0 °F 32% 30.06 in 10.0 mi West 6.9 mph - N/A   Clear
4:53 PM 86.0 °F - 52.0 °F 31% 30.04 in 10.0 mi WNW 9.2 mph - N/A   Clear
5:53 PM 84.9 °F - 51.1 °F 31% 30.02 in 10.0 mi Variable 5.8 mph - N/A   Clear
6:53 PM 84.9 °F - 52.0 °F 32% 30.02 in 10.0 mi Variable 6.9 mph - N/A   Clear
7:53 PM 82.0 °F 81.2 °F 53.1 °F 37% 30.01 in 10.0 mi WSW 5.8 mph - N/A   Clear
8:53 PM 78.1 °F - 55.0 °F 45% 30.02 in 10.0 mi SW 3.5 mph - N/A   Clear
9:53 PM 70.0 °F - 57.9 °F 65% 30.04 in 10.0 mi Calm Calm - N/A   Clear
10:53 PM 66.0 °F - 57.9 °F 75% 30.05 in 10.0 mi Calm Calm - N/A   Clear
11:53 PM 66.0 °F - 57.9 °F 75% 30.04 in 10.0 mi Calm Calm - N/A   Clear